TEXAS PACIFIC LAND TRUST

Pages

TEXAS PACIFIC LAND TRUST

$TPL

Search Table
Pages

Trade Date Insider Title Buy or Sell Quantity Security Type Price Proceeds Transaction Conviction Position Quantity Position Value Positon Conviction SEC Link Nature of Ownership
2020-07-02Horizon Kinetics Asset Management Llc-Buy236Common Stock$577.39-$136,264.04  0.30     [ Average ]280,849$162,159,404.11  362.11   [Very High]Form 4-
2020-07-06Horizon Kinetics Asset Management Llc-Buy236Common Stock$569.99-$134,517.64  0.30     [ Average ]281,085$160,215,639.15  362.41   [Very High]Form 4-
2020-07-07Horizon Kinetics Asset Management Llc-Buy172Common Stock$549.76-$94,558.72  0.22     [ Low ]281,257$154,623,848.32  362.63   [Very High]Form 4-
2020-07-15Horizon Kinetics Asset Management Llc-Buy172Common Stock$596.73-$102,637.56  0.22     [ Low ]282,295$168,453,895.35  363.97   [Very High]Form 4-
2020-07-08Horizon Kinetics Asset Management Llc-Buy172Common Stock$561.01-$96,493.72  0.22     [ Low ]281,429$157,884,483.29  362.85   [Very High]Form 4-
2020-06-30Horizon Kinetics Asset Management Llc-Buy236Common Stock$594.69-$140,346.84  0.30     [ Average ]280,377$166,737,398.13  361.50   [Very High]Form 4-
2020-07-09Horizon Kinetics Asset Management Llc-Buy178Common Stock$542.59-$96,581.02  0.23     [ Low ]281,607$152,797,142.13  363.08   [Very High]Form 4-
2020-04-03Horizon Kinetics Asset Management Llc-Buy3Common Stock$457.87-$1,373.61  -319,638$146,352,651.06  412.12   [Very High]Form 4-
2020-04-06Horizon Kinetics Asset Management Llc-Buy1Common Stock$475.03-$475.03  -319,639$151,838,114.17  412.12   [Very High]Form 4-
2020-04-07Horizon Kinetics Asset Management Llc-Buy1Common Stock$457.04-$457.04  -319,640$146,088,265.60  412.12   [Very High]Form 4-
2020-04-08Horizon Kinetics Asset Management Llc-Buy1Common Stock$471.03-$471.03  -319,641$150,560,500.23  412.12   [Very High]Form 4-
2020-04-09Horizon Kinetics Asset Management Llc-Buy1Common Stock$513.24-$513.24  -319,642$164,053,060.08  412.12   [Very High]Form 4-
2020-04-13Horizon Kinetics Asset Management Llc-Buy1Common Stock$515.10-$515.10  -319,643$164,648,109.30  412.12   [Very High]Form 4-
2020-04-14Horizon Kinetics Asset Management Llc-Buy1Common Stock$535.53-$535.53  -319,644$171,178,951.32  412.12   [Very High]Form 4-
2020-05-14Horizon Kinetics Asset Management Llc-Buy414Common Stock$519.97-$215,267.58  0.53     [ Average ]321,407$167,121,997.79  414.40   [Very High]Form 4-
2020-05-15Horizon Kinetics Asset Management Llc-Buy5Common Stock$524.35-$2,621.75  -321,412$168,532,382.20  414.40   [Very High]Form 4-
2020-07-10Horizon Kinetics Asset Management Llc-Buy172Common Stock$547.00-$94,084.00  0.22     [ Low ]281,779$154,133,113.00  363.30   [Very High]Form 4-
2020-05-07Horizon Kinetics Asset Management Llc-Buy8Common Stock$493.03-$3,944.24  -319,652$157,598,025.56  412.14   [Very High]Form 4-
2020-05-08Horizon Kinetics Asset Management Llc-Buy176Common Stock$521.55-$91,792.80  0.23     [ Low ]319,828$166,806,293.40  412.36   [Very High]Form 4-
2020-05-11Horizon Kinetics Asset Management Llc-Buy288Common Stock$520.19-$149,814.72  0.37     [ Average ]320,116$166,521,142.04  412.73   [Very High]Form 4-
2020-05-12Horizon Kinetics Asset Management Llc-Buy463Common Stock$524.01-$242,616.63  0.60     [ Average ]320,579$167,986,601.79  413.33   [Very High]Form 4-
2020-05-13Horizon Kinetics Asset Management Llc-Buy414Common Stock$511.71-$211,847.94  0.53     [ Average ]320,993$164,255,328.03  413.86   [Very High]Form 4-
2020-07-13Horizon Kinetics Asset Management Llc-Buy172Common Stock$537.02-$92,367.44  0.22     [ Low ]281,951$151,413,326.02  363.53   [Very High]Form 4-
2020-06-12Horizon Kinetics Asset Management Llc-Buy238Common Stock$627.00-$149,226.00  0.31     [ Average ]276,840$173,578,680.00  356.94   [Very High]Form 4-
2020-06-15Horizon Kinetics Asset Management Llc-Buy236Common Stock$625.57-$147,634.52  0.30     [ Average ]277,085$173,336,063.45  357.25   [Very High]Form 4-
2020-07-14Horizon Kinetics Asset Management Llc-Buy172Common Stock$585.18-$100,650.96  0.22     [ Low ]282,123$165,092,737.14  363.75   [Very High]Form 4-
2020-06-16Horizon Kinetics Asset Management Llc-Buy236Common Stock$641.35-$151,358.60  -277,321$177,859,823.35  -Form 4-
2020-06-17Horizon Kinetics Asset Management Llc-Buy236Common Stock$625.12-$147,528.32  -277,557$173,506,431.84  -Form 4-
2020-06-18Horizon Kinetics Asset Management Llc-Buy236Common Stock$614.90-$145,116.40  -277,793$170,814,915.70  -Form 4-
2020-06-19Horizon Kinetics Asset Management Llc-Buy936Common Stock$624.04-$584,101.44  1.21     [ High ]278,729$173,938,045.16  359.37   [Very High]Form 4-
2020-06-22Horizon Kinetics Asset Management Llc-Buy236Common Stock$614.11-$144,929.96  -278,965$171,315,196.15  -Form 4-
2020-06-23Horizon Kinetics Asset Management Llc-Buy236Common Stock$599.95-$141,588.20  -279,201$167,506,639.95  -Form 4-
2020-06-24Horizon Kinetics Asset Management Llc-Buy236Common Stock$572.00-$134,992.00  -279,437$159,837,964.00  -Form 4-
2020-06-25Horizon Kinetics Asset Management Llc-Buy232Common Stock$584.27-$135,550.64  -279,669$163,402,206.63  -Form 4-
2020-06-29Horizon Kinetics Asset Management Llc-Buy236Common Stock$570.01-$134,522.36  -280,141$159,683,171.41  -Form 4-
2020-07-01Horizon Kinetics Asset Management Llc-Buy236Common Stock$578.40-$136,502.40  0.30     [ Average ]280,613$162,306,559.20  361.80   [Very High]Form 4-
2020-07-15Horizon Kinetics Asset Management Llc-Buy172Common Stock$596.73-$102,637.56  0.22     [ Low ]282,295$168,453,895.35  363.97   [Very High]Form 4-
2020-07-16Horizon Kinetics Asset Management Llc-Buy172Common Stock$582.43-$100,177.96  0.22     [ Low ]282,467$164,517,254.81  364.19   [Very High]Form 4-
2020-07-17Horizon Kinetics Asset Management Llc-Buy172Common Stock$585.71-$100,742.12  0.22     [ Low ]282,639$165,544,488.69  364.41   [Very High]Form 4-
2020-07-20Horizon Kinetics Asset Management Llc-Buy172Common Stock$575.01-$98,901.72  0.22     [ Low ]282,811$162,619,153.11  364.64   [Very High]Form 4-
2020-07-21Horizon Kinetics Asset Management Llc-Buy12Common Stock$582.00-$6,984.00  0.02     [ Very Low ]282,823$164,602,986.00  364.65   [Very High]Form 4-
2020-07-22Horizon Kinetics Asset Management Llc-Buy12Common Stock$573.82-$6,885.84  0.02     [ Very Low ]282,835$162,296,379.70  364.67   [Very High]Form 4-
2020-07-23Horizon Kinetics Asset Management Llc-Buy14Common Stock$568.80-$7,963.20  0.02     [ Very Low ]282,849$160,884,511.20  364.68   [Very High]Form 4-
2020-07-24Horizon Kinetics Asset Management Llc-Buy12Common Stock$560.02-$6,720.24  0.02     [ Very Low ]276,344$154,758,166.88  356.30   [Very High]Form 4-
2020-07-27Horizon Kinetics Asset Management Llc-Buy12Common Stock$555.00-$6,660.00  0.02     [ Very Low ]276,356$153,377,580.00  356.31   [Very High]Form 4-
2020-07-28Horizon Kinetics Asset Management Llc-Buy12Common Stock$548.99-$6,587.88  0.02     [ Very Low ]276,368$151,723,268.32  356.33   [Very High]Form 4-
2020-07-29Horizon Kinetics Asset Management Llc-Buy12Common Stock$562.00-$6,744.00  0.02     [ Very Low ]276,380$155,325,560.00  356.34   [Very High]Form 4-
2020-07-30Horizon Kinetics Asset Management Llc-Buy12Common Stock$554.57-$6,654.84  0.02     [ Very Low ]276,392$153,278,711.44  356.36   [Very High]Form 4-
2020-07-31Horizon Kinetics Asset Management Llc-Buy16Common Stock$532.99-$8,527.84  0.02     [ Very Low ]276,408$147,322,699.92  356.38   [Very High]Form 4-
2020-08-03Horizon Kinetics Asset Management Llc-Buy12Common Stock$539.99-$6,479.88  0.02     [ Very Low ]276,420$149,264,035.80  356.40   [Very High]Form 4-
2020-08-04Horizon Kinetics Asset Management Llc-Buy12Common Stock$564.40-$6,772.80  0.02     [ Very Low ]276,432$156,018,220.80  356.41   [Very High]Form 4-
2020-08-05Horizon Kinetics Asset Management Llc-Buy16Common Stock$602.00-$9,632.00  0.02     [ Very Low ]276,448$166,421,696.00  356.43   [Very High]Form 4-
2020-08-06Horizon Kinetics Asset Management Llc-Buy14Common Stock$576.90-$8,076.60  0.02     [ Very Low ]276,462$159,490,927.80  356.45   [Very High]Form 4-
2020-08-07Horizon Kinetics Asset Management Llc-Buy8Common Stock$584.00-$4,672.00  -276,470$161,458,480.00  356.46   [Very High]Form 4-
2020-08-10Horizon Kinetics Asset Management Llc-Buy16Common Stock$599.00-$9,584.00  0.02     [ Very Low ]276,486$165,615,114.00  356.48   [Very High]Form 4-
2020-08-11Horizon Kinetics Asset Management Llc-Buy30Common Stock$588.20-$17,646.00  0.04     [ Very Low ]276,516$162,646,711.20  356.52   [Very High]Form 4-
2020-08-12Horizon Kinetics Asset Management Llc-Buy48Common Stock$590.01-$28,320.48  0.06     [ Very Low ]276,564$163,175,525.64  356.58   [Very High]Form 4-
2020-08-13Horizon Kinetics Asset Management Llc-Buy26Common Stock$588.99-$15,313.74  0.03     [ Very Low ]276,590$162,908,744.10  356.61   [Very High]Form 4-
2020-08-14Horizon Kinetics Asset Management Llc-Buy12Common Stock$600.00-$7,200.00  0.02     [ Very Low ]276,602$165,961,200.00  356.63   [Very High]Form 4-
2020-08-17Horizon Kinetics Asset Management Llc-Buy12Common Stock$596.74-$7,160.88  0.02     [ Very Low ]276,614$165,066,638.36  356.65   [Very High]Form 4-
2020-08-18Horizon Kinetics Asset Management Llc-Buy12Common Stock$587.35-$7,048.20  0.02     [ Very Low ]276,626$162,476,281.10  356.66   [Very High]Form 4-
2020-08-19Horizon Kinetics Asset Management Llc-Buy12Common Stock$572.11-$6,865.32  -276,638$158,267,366.18  -Form 4-
2020-08-20Horizon Kinetics Asset Management Llc-Buy12Common Stock$559.47-$6,713.64  0.02     [ Very Low ]276,650$154,777,375.50  356.69   [Very High]Form 4-
2020-08-21Horizon Kinetics Asset Management Llc-Buy12Common Stock$552.51-$6,630.12  0.02     [ Very Low ]276,662$152,858,521.62  356.71   [Very High]Form 4-
2020-08-24Horizon Kinetics Asset Management Llc-Buy12Common Stock$543.08-$6,516.96  0.02     [ Very Low ]276,674$150,256,115.92  356.72   [Very High]Form 4-
2020-08-25Horizon Kinetics Asset Management Llc-Buy44Common Stock$545.14-$23,986.16  0.06     [ Very Low ]276,718$150,850,050.52  356.78   [Very High]Form 4-
2020-08-26Horizon Kinetics Asset Management Llc-Buy12Common Stock$542.78-$6,513.36  0.02     [ Very Low ]276,730$150,203,509.40  356.79   [Very High]Form 4-
2020-08-27Horizon Kinetics Asset Management Llc-Buy12Common Stock$537.74-$6,452.88  0.02     [ Very Low ]276,742$148,815,243.08  356.81   [Very High]Form 4-
2020-08-31Horizon Kinetics Asset Management Llc-Buy12Common Stock$526.72-$6,320.64  0.02     [ Very Low ]276,766$145,778,187.52  356.84   [Very High]Form 4-
2020-09-01Horizon Kinetics Asset Management Llc-Buy14Common Stock$536.72-$7,514.08  0.02     [ Very Low ]276,780$148,553,361.60  356.86   [Very High]Form 4-
2020-09-02Horizon Kinetics Asset Management Llc-Buy14Common Stock$537.80-$7,529.20  0.02     [ Very Low ]276,794$148,859,813.20  356.88   [Very High]Form 4-
2020-09-03Horizon Kinetics Asset Management Llc-Buy14Common Stock$527.32-$7,382.48  0.02     [ Very Low ]276,808$145,966,394.56  356.90   [Very High]Form 4-
2020-09-04Horizon Kinetics Asset Management Llc-Buy14Common Stock$510.69-$7,149.66  0.02     [ Very Low ]276,822$141,370,227.18  356.91   [Very High]Form 4-
2020-09-08Horizon Kinetics Asset Management Llc-Buy14Common Stock$494.03-$6,916.42  0.02     [ Very Low ]276,836$136,765,289.08  356.93   [Very High]Form 4-
2020-09-10Horizon Kinetics Asset Management Llc-Buy5Common Stock$481.00-$2,405.00  -276,841$133,160,521.00  356.94   [Very High]Form 4-
2020-09-16Horizon Kinetics Asset Management Llc-Buy4Common Stock$458.56-$1,834.24  -276,845$126,950,043.20  356.94   [Very High]Form 4-
2020-09-17Horizon Kinetics Asset Management Llc-Buy14Common Stock$459.42-$6,431.88  0.02     [ Very Low ]276,859$127,194,561.78  356.96   [Very High]Form 4-
2020-09-18Horizon Kinetics Asset Management Llc-Buy14Common Stock$457.99-$6,411.86  0.02     [ Very Low ]276,873$126,805,065.27  356.98   [Very High]Form 4-
2020-09-21Horizon Kinetics Asset Management Llc-Buy14Common Stock$459.56-$6,433.84  0.02     [ Very Low ]276,887$127,246,189.72  357.00   [Very High]Form 4-
2020-09-22Horizon Kinetics Asset Management Llc-Buy14Common Stock$461.00-$6,454.00  0.02     [ Very Low ]276,901$127,651,361.00  357.02   [Very High]Form 4-
2020-09-23Horizon Kinetics Asset Management Llc-Buy14Common Stock$441.70-$6,183.80  0.02     [ Very Low ]276,915$122,313,355.50  357.03   [Very High]Form 4-
2020-09-24Horizon Kinetics Asset Management Llc-Buy14Common Stock$457.02-$6,398.28  0.02     [ Very Low ]276,929$126,562,091.58  357.05   [Very High]Form 4-
2020-09-25Horizon Kinetics Asset Management Llc-Buy14Common Stock$451.00-$6,314.00  0.02     [ Very Low ]276,943$124,901,293.00  357.07   [Very High]Form 4-
2020-09-28Horizon Kinetics Asset Management Llc-Buy14Common Stock$461.48-$6,460.72  0.02     [ Very Low ]276,957$127,810,116.36  357.09   [Very High]Form 4-
2020-09-28Murray StahlPresident & CEOBuy75Common Stock$1.31-$98.25  0.10     [ Low ]39,309$51,494.79  50.68    [High]Form 4By Fromex Equity Corp
2020-09-28Murray StahlPresident & CEOBuy300Common Stock$1.31-$393.00  0.39     [ Average ]39,609$51,887.79  51.07    [High]Form 4By FRMO Corp
2020-09-28Murray StahlPresident & CEOBuy300Common Stock$1.31-$393.00  0.39     [ Average ]39,909$52,280.79  51.46    [High]Form 4By Horizon Common Inc
2020-09-29Horizon Kinetics Asset Management Llc-Buy14Common Stock$452.06-$6,328.84  0.02     [ Very Low ]276,971$125,207,510.26  357.11   [Very High]Form 4-
2020-09-30Horizon Kinetics Asset Management Llc-Buy14Common Stock$451.56-$6,321.84  0.02     [ Very Low ]276,985$125,075,346.60  357.12   [Very High]Form 4-
2020-10-01Horizon Kinetics Asset Management Llc-Buy14Common Stock$450.20-$6,302.80  0.02     [ Very Low ]276,999$124,704,949.80  357.14   [Very High]Form 4-
2020-10-02Horizon Kinetics Asset Management Llc-Buy14Common Stock$448.10-$6,273.40  0.02     [ Very Low ]277,013$124,129,525.30  357.16   [Very High]Form 4-
2020-10-05Horizon Kinetics Asset Management Llc-Buy14Common Stock$455.11-$6,371.54  0.02     [ Very Low ]277,027$126,077,757.97  357.18   [Very High]Form 4-
2020-10-06Horizon Kinetics Asset Management Llc-Buy14Common Stock$460.22-$6,443.08  0.02     [ Very Low ]277,041$127,499,809.02  357.20   [Very High]Form 4-
2020-10-07Horizon Kinetics Asset Management Llc-Buy14Common Stock$472.98-$6,621.72  0.02     [ Very Low ]277,055$131,041,473.90  357.21   [Very High]Form 4-
2020-10-08Horizon Kinetics Asset Management Llc-Buy14Common Stock$484.73-$6,786.22  0.02     [ Very Low ]277,069$134,303,656.37  357.23   [Very High]Form 4-
2020-10-09Horizon Kinetics Asset Management Llc-Buy14Common Stock$466.60-$6,532.40  0.02     [ Very Low ]277,083$129,286,927.80  357.25   [Very High]Form 4-
2020-10-12Horizon Kinetics Asset Management Llc-Buy14Common Stock$471.99-$6,607.86  0.02     [ Very Low ]277,097$130,787,013.03  357.27   [Very High]Form 4-
2020-10-13Horizon Kinetics Asset Management Llc-Buy14Common Stock$459.65-$6,435.10  0.02     [ Very Low ]277,111$127,374,071.15  357.29   [Very High]Form 4-
2020-10-14Horizon Kinetics Asset Management Llc-Buy15Common Stock$465.01-$6,975.15  0.02     [ Very Low ]277,126$128,866,361.26  357.31   [Very High]Form 4-
2020-10-15Horizon Kinetics Asset Management Llc-Buy14Common Stock$481.42-$6,739.88  0.02     [ Very Low ]277,140$133,420,738.80  357.32   [Very High]Form 4-
2020-10-16Horizon Kinetics Asset Management Llc-Buy14Common Stock$469.42-$6,571.88  0.02     [ Very Low ]277,154$130,101,630.68  357.34   [Very High]Form 4-
2020-10-19Horizon Kinetics Asset Management Llc-Buy14Common Stock$472.00-$6,608.00  0.02     [ Very Low ]277,168$130,823,296.00  357.36   [Very High]Form 4-
2020-10-20Horizon Kinetics Asset Management Llc-Buy14Common Stock$469.98-$6,579.72  0.02     [ Very Low ]277,182$130,269,996.36  357.38   [Very High]Form 4-
2020-10-21Horizon Kinetics Asset Management Llc-Buy14Common Stock$463.05-$6,482.70  0.02     [ Very Low ]277,196$128,355,607.80  357.40   [Very High]Form 4-
2020-10-22Horizon Kinetics Asset Management Llc-Buy14Common Stock$479.17-$6,708.38  0.02     [ Very Low ]277,210$132,830,715.70  357.41   [Very High]Form 4-
2020-10-23Horizon Kinetics Asset Management Llc-Buy14Common Stock$477.98-$6,691.72  0.02     [ Very Low ]277,224$132,507,527.52  357.43   [Very High]Form 4-
2020-10-26Horizon Kinetics Asset Management Llc-Buy14Common Stock$472.98-$6,621.72  0.02     [ Very Low ]277,238$131,128,029.24  357.45   [Very High]Form 4-
2020-10-27Horizon Kinetics Asset Management Llc-Buy14Common Stock$463.20-$6,484.80  0.02     [ Very Low ]277,252$128,423,126.40  357.47   [Very High]Form 4-
2020-10-28Horizon Kinetics Asset Management Llc-Buy14Common Stock$449.49-$6,292.86  0.02     [ Very Low ]277,266$124,628,294.34  357.49   [Very High]Form 4-
2020-10-29Horizon Kinetics Asset Management Llc-Buy14Common Stock$464.62-$6,504.68  0.02     [ Very Low ]277,280$128,829,833.60  357.50   [Very High]Form 4-
2020-10-30Horizon Kinetics Asset Management Llc-Buy14Common Stock$450.41-$6,305.74  0.02     [ Very Low ]277,294$124,895,990.54  357.52   [Very High]Form 4-
2020-11-02Horizon Kinetics Asset Management Llc-Buy14Common Stock$465.44-$6,516.16  0.02     [ Very Low ]277,308$129,070,235.52  357.54   [Very High]Form 4-
2020-11-03Horizon Kinetics Asset Management Llc-Buy19Common Stock$483.99-$9,195.81  0.02     [ Very Low ]277,327$134,223,494.73  357.56   [Very High]Form 4-
2020-11-04Horizon Kinetics Asset Management Llc-Buy18Common Stock$474.51-$8,541.18  0.02     [ Very Low ]277,345$131,602,975.95  357.59   [Very High]Form 4-
2020-11-05Horizon Kinetics Asset Management Llc-Buy14Common Stock$506.83-$7,095.62  0.02     [ Very Low ]277,359$140,573,861.97  357.61   [Very High]Form 4-
2020-11-06Horizon Kinetics Asset Management Llc-Buy14Common Stock$497.58-$6,966.12  0.02     [ Very Low ]277,373$138,015,257.34  357.62   [Very High]Form 4-
2020-11-09Horizon Kinetics Asset Management Llc-Buy19Common Stock$574.98-$10,924.62  0.02     [ Very Low ]277,392$159,494,852.16  357.65   [Very High]Form 4-
2020-11-10Horizon Kinetics Asset Management Llc-Buy19Common Stock$556.02-$10,564.38  0.02     [ Very Low ]277,411$154,246,064.22  357.67   [Very High]Form 4-
2020-11-11Horizon Kinetics Asset Management Llc-Buy19Common Stock$540.25-$10,264.75  0.02     [ Very Low ]277,430$149,881,557.50  357.70   [Very High]Form 4-
2020-11-10Murray StahlPresident & CEOBuy75Common Stock$1.46-$109.50  0.10     [ Low ]60,234$87,941.64  77.66    [High]Form 4By Fromex Equity Corp
2020-11-10Murray StahlPresident & CEOBuy300Common Stock$1.46-$438.00  0.39     [ Average ]60,534$88,379.64  78.05    [High]Form 4By FRMO Corp
2020-11-10Murray StahlPresident & CEOBuy300Common Stock$1.46-$438.00  0.39     [ Average ]60,834$88,817.64  78.43    [High]Form 4By Horizon Common Inc
2020-11-11Murray StahlPresident & CEOBuy75Common Stock$1.47-$110.25  0.10     [ Low ]60,909$89,536.23  78.53    [High]Form 4By Fromex Equity Corp
2020-11-11Murray StahlPresident & CEOBuy300Common Stock$1.47-$441.00  0.39     [ Average ]61,209$89,977.23  78.92    [High]Form 4By FRMO Corp
2020-11-11Murray StahlPresident & CEOBuy300Common Stock$1.47-$441.00  0.39     [ Average ]61,509$90,418.23  79.31    [High]Form 4By Horizon Common Inc
2020-11-12Horizon Kinetics Asset Management Llc-Buy14Common Stock$537.22-$7,521.08  0.02     [ Very Low ]277,444$149,048,465.68  357.72   [Very High]Form 4-
2020-11-13Horizon Kinetics Asset Management Llc-Buy14Common Stock$549.85-$7,697.90  0.02     [ Very Low ]277,482$152,573,477.70  357.76   [Very High]Form 4-
2020-11-16Horizon Kinetics Asset Management Llc-Buy18Common Stock$579.99-$10,439.82  0.02     [ Very Low ]277,500$160,947,225.00  357.79   [Very High]Form 4-
2020-11-17Horizon Kinetics Asset Management Llc-Buy14Common Stock$584.87-$8,188.18  0.02     [ Very Low ]277,514$162,309,613.18  357.81   [Very High]Form 4-
2020-11-25Horizon Kinetics Asset Management Llc-Buy19Common Stock$623.19-$11,840.61  0.02     [ Very Low ]277,551$172,967,007.69  357.85   [Very High]Form 4-
2020-11-27Horizon Kinetics Asset Management Llc-Buy23Common Stock$589.00-$13,547.00  0.03     [ Very Low ]277,574$163,491,086.00  357.88   [Very High]Form 4-
2020-11-27Murray StahlPresident & CEOBuy75Common Stock$1.57-$117.75  0.10     [ Low ]68,334$107,284.38  88.10    [Very High]Form 4By Fromex Equity Corp
2020-11-27Murray StahlPresident & CEOBuy300Common Stock$1.56-$468.00  0.39     [ Average ]68,634$107,069.04  88.49    [Very High]Form 4By FRMO Corp
2020-11-27Murray StahlPresident & CEOBuy300Common Stock$1.56-$468.00  0.39     [ Average ]68,934$107,537.04  88.88    [Very High]Form 4By Horizon Common Inc